EW4304 Weather Reports


Display with metric or nautical units.
time (UTC)temp
F
wind
direction
speed
MPH
gust
MPH
rain 1hr
in
rain 24hr
in
rain mn
in
humidity
%
barometer
mb
20260902221540 92 234 1.0 9.0 0.00 0.00 0.00 57 1013.9
20260902220041 93 225 3.0 8.0 0.00 0.00 0.00 56 1014.1
20260902214536 93 157 2.0 7.0 0.00 0.00 0.00 55 1014.0
20260902213036 93 179 4.0 9.0 0.00 0.00 0.00 54 1014.1
20260902211533 95 171 3.0 7.0 0.00 0.00 0.00 54 1014.2
20260902210031 94 156 2.0 6.0 0.00 0.00 0.00 54 1014.3
20260902204541 93 188 4.0 9.0 0.00 0.00 0.00 54 1014.4
20260902203028 94 223 1.0 8.0 0.00 0.00 0.00 54 1014.4
20260902201528 94 170 2.0 9.0 0.00 0.00 0.00 55 1014.6
20260902200025 94 318 2.0 8.0 0.00 0.00 0.00 54 1014.7
20260902194526 94 157 4.0 8.0 0.00 0.00 0.00 54 1014.8
20260902193022 95 300 2.0 5.0 0.00 0.00 0.00 53 1015.0
20260902191520 94 199 4.0 9.0 0.00 0.00 0.00 53 1015.1
20260902190018 94 258 3.0 9.0 0.00 0.00 0.00 53 1015.2
20260902184519 93 299 4.0 10.0 0.00 0.00 0.00 55 1015.4
20260902183033 93 200 4.0 9.0 0.00 0.00 0.00 54 1015.4
20260902181513 93 269 4.0 8.0 0.00 0.00 0.00 54 1015.6
20260902180011 92 266 5.0 11.0 0.00 0.00 0.00 56 1015.6
20260902174612 93 204 4.0 9.0 0.00 0.00 0.00 55 1015.8
20260902173016 91 288 1.0 12.0 0.00 0.00 0.00 58 1016.1
20260902171509 91 167 6.0 12.0 0.00 0.00 0.00 57 1016.3
20260902170007 91 250 0.0 9.0 0.00 0.00 0.00 59 1016.4
20260902164505 92 326 4.0 8.0 0.00 0.00 0.00 58 1016.3
20260902163004 91 283 4.0 8.0 0.00 0.00 0.00 60 1016.4
20260902161502 91 308 2.0 6.0 0.00 0.00 0.00 61 1016.4
20260902160058 90 273 1.0 9.0 0.00 0.00 0.00 63 1016.5
20260902154556 89 209 1.0 6.0 0.00 0.00 0.00 65 1016.5
20260902153105 88 216 4.0 8.0 0.00 0.00 0.00 66 1016.5
20260902151552 88 261 2.0 6.0 0.00 0.00 0.00 66 1016.6
20260902150049 87 262 2.0 8.0 0.00 0.00 0.00 68 1016.8
20260902144546 86 155 3.0 6.0 0.00 0.00 0.00 69 1016.7
20260902143047 85 306 3.0 8.0 0.00 0.00 0.00 71 1016.8
20260902141542 84 122 1.0 8.0 0.00 0.00 0.00 74 1016.7
20260902140037 83 286 2.0 7.0 0.00 0.00 0.00 75 1016.7
20260902134532 82 276 3.0 7.0 0.00 0.00 0.00 77 1016.6
20260902133029 79 298 0.0 3.0 0.00 0.00 0.00 83 1016.6
20260902131524 77 157 0.0 4.0 0.00 0.00 0.00 86 1016.7
20260902130020 76 154 0.0 2.0 0.00 0.00 0.00 88 1016.8
20260902124520 75 186 0.0 3.0 0.00 0.00 0.00 89 1016.7
20260902123019 74 173 0.0 3.0 0.00 0.00 0.00 90 1016.7
20260902121517 73 152 0.0 1.0 0.00 0.00 0.00 90 1016.6
20260902120018 73 180 0.0 2.0 0.00 0.00 0.00 90 1016.5
20260902114515 72 180 0.0 2.0 0.00 0.00 0.00 90 1016.4
20260902113013 72 180 0.0 1.0 0.00 0.00 0.00 90 1016.1
20260902111513 72 180 0.0 3.0 0.00 0.00 0.00 90 1016.1
20260902110033 72 203 0.0 2.0 0.00 0.00 0.00 89 1016.0
20260902104520 72 177 0.0 0.0 0.00 0.00 0.00 90 1015.9
20260902103019 71 177 0.0 2.0 0.00 0.00 0.00 89 1015.9
20260902101509 71 177 0.0 1.0 0.00 0.00 0.00 89 1015.8
20260902100012 71 177 0.0 0.0 0.00 0.00 0.00 90 1016.0
20260902094508 71 177 0.0 0.0 0.00 0.00 0.00 90 1015.8
20260902093007 71 177 0.0 0.0 0.00 0.00 0.00 90 1015.7
20260902091506 71 177 0.0 0.0 0.00 0.00 0.00 90 1015.7
20260902090017 71 177 0.0 0.0 0.00 0.00 0.00 90 1015.8
20260902084503 71 177 0.0 0.0 0.00 0.00 0.00 90 1015.5
20260902083001 72 177 0.0 0.0 0.00 0.00 0.00 90 1015.3
20260902081600 72 177 0.0 0.0 0.00 0.00 0.00 90 1015.3
20260902074559 72 177 0.0 0.0 0.00 0.00 0.00 90 1015.3
20260902073058 72 177 0.0 0.0 0.00 0.00 0.00 90 1015.2
20260902071557 72 177 0.0 0.0 0.00 0.00 0.00 90 1015.2
20260902070054 73 177 0.0 0.0 0.00 0.00 0.00 90 1015.1
20260902064602 73 177 0.0 0.0 0.00 0.00 0.00 90 1015.2
20260902063107 73 177 0.0 0.0 0.00 0.00 0.00 90 1015.1
20260902061609 73 177 0.0 0.0 0.00 0.00 0.00 89 1015.2
20260902060051 74 177 0.0 0.0 0.00 0.00 0.00 89 1015.3
20260902054547 74 177 0.0 0.0 0.00 0.00 0.00 89 1015.3
20260902053146 75 177 0.0 0.0 0.00 0.00 0.00 89 1015.2
20260902051557 75 177 0.0 0.0 0.00 0.00 0.00 89 1015.2
20260902050043 75 177 0.0 0.0 0.00 0.00 0.00 89 1015.1
20260902044603 75 177 0.0 0.0 0.00 0.00 0.00 89 1015.2
20260902043046 75 177 0.0 0.0 0.00 0.00 0.00 88 1015.2
20260902041544 76 177 0.0 0.0 0.00 0.00 0.00 88 1015.3
20260902040036 76 177 0.0 0.0 0.00 0.00 0.00 87 1015.3
20260902034536 76 177 0.0 0.0 0.00 0.00 0.00 87 1015.2
20260902033036 77 177 0.0 0.0 0.00 0.00 0.00 86 1015.2
20260902031552 77 177 0.0 0.0 0.00 0.00 0.00 86 1015.2
20260902030035 77 177 0.0 0.0 0.00 0.00 0.00 86 1015.3
20260902024542 78 177 0.0 1.0 0.00 0.00 0.00 85 1015.2
20260902023034 78 177 0.0 0.0 0.00 0.00 0.00 85 1015.1
20260902021534 78 177 0.0 0.0 0.00 0.00 0.00 85 1015.1
20260902020034 79 177 0.0 1.0 0.00 0.00 0.00 84 1015.0
20260902014538 79 177 0.0 1.0 0.00 0.00 0.00 83 1014.9
20260902013034 80 177 0.0 0.0 0.00 0.00 0.00 82 1014.9
20260902011532 81 177 0.0 0.0 0.00 0.00 0.00 81 1014.8
20260902010035 82 177 0.0 0.0 0.00 0.00 0.00 80 1014.7
20260902004531 83 177 0.0 1.0 0.00 0.00 0.00 79 1014.6
20260902003030 84 177 0.0 0.0 0.00 0.00 0.00 77 1014.5
20260902001530 85 177 0.0 0.0 0.00 0.00 0.00 74 1014.5
20260902000027 87 177 0.0 0.0 0.00 0.00 0.00 71 1014.6
20260901234527 88 177 0.0 1.0 0.00 0.00 0.00 70 1014.7
20260901233028 89 177 0.0 2.0 0.00 0.00 0.00 66 1014.8
20260901231531 90 177 0.0 2.0 0.00 0.00 0.00 62 1014.8
20260901230023 91 166 1.0 4.0 0.00 0.00 0.00 60 1014.9
20260901224523 91 190 1.0 6.0 0.00 0.00 0.00 58 1014.8
20260901223023 92 170 2.0 7.0 0.00 0.00 0.00 57 1014.9